Ypsilanti, MI

1:35 PM EDT on June 27, 2017 (GMT -0400)
Willow Run

Weather History for KYIP - January, 2013

Change the Weather History Date:

Wednesday, January 16, 2013

  Actual Average Record
Temperature  
Mean Temperature 30 °F -  
Max Temperature 39 °F 29 °F 52 °F (1949)
Min Temperature 21 °F 15 °F -17 °F (2009)
Degree Days  
Heating Degree Days 35    
Moisture  
Dew Point 19 °F    
Average Humidity 59    
Maximum Humidity 81    
Minimum Humidity 36    
Precipitation  
Precipitation 0.00 in - - ()
Sea Level Pressure  
Sea Level Pressure 29.94 in    
Wind  
Wind Speed 7 mph (WSW)    
Max Wind Speed 20 mph    
Max Gust Speed 28 mph    
Visibility 9 miles    
Events      
Averages and records for this station are not official NWS values.
T = Trace of Precipitation, MM = Missing Value Source: NWS Daily Summary

Daily Weather History Graph

Daily Weather History Graph

Search for Another Location

Airport or City:

Trip Planner

Search our weather history database for the weather conditions in past years. The results will help you decide how hot, cold, wet, or windy it might be!

Date:

Astronomy

Jan. 16, 2013 Rise Set
Actual Time 7:59 AM EST 5:28 PM EST
Civil Twilight 7:28 AM EST 5:59 PM EST
Nautical Twilight 6:54 AM EST 6:34 PM EST
Astronomical Twilight 6:20 AM EST 7:07 PM EST
Moon 10:28 AM EST (1/16) 11:26 PM EST (1/16)
Length of Visible Light 10h 30m
Length of Day
9h 28m
Waxing Crescent, 28% of the Moon is Illuminated
Jan 16
Waxing Crescent
Jan 18
First Quarter
Jan 26
Full
Feb 3
Last Quarter
Feb 10
New

Hourly Weather History & Observations

Time (EST) Temp. Windchill Dew Point Humidity Pressure Visibility Wind Dir Wind Speed Gust Speed Precip Events Conditions
1:53 AM 23.0 °F - 18.0 °F 81% 30.12 in 9.0 mi Calm Calm - N/A   Clear
3:53 AM 23.0 °F - 18.0 °F 81% 30.08 in 8.0 mi Calm Calm - N/A   Clear
4:53 AM 21.9 °F - 16.0 °F 78% 30.06 in 8.0 mi Calm Calm - N/A   Mostly Cloudy
5:53 AM 24.1 °F 19.7 °F 19.0 °F 81% 30.03 in 8.0 mi NNW 3.5 mph - N/A   Overcast
6:53 AM 24.1 °F - 18.0 °F 77% 30.01 in 9.0 mi Calm Calm - N/A   Overcast
7:53 AM 25.0 °F - 19.0 °F 78% 29.99 in 9.0 mi Calm Calm - N/A   Overcast
8:53 AM 25.0 °F - 19.9 °F 81% 29.98 in 6.0 mi Calm Calm - N/A   Haze
9:53 AM 28.9 °F 22.8 °F 19.9 °F 69% 29.97 in 10.0 mi WSW 5.8 mph - N/A   Clear
10:53 AM 33.1 °F 24.9 °F 23.0 °F 66% 29.96 in 10.0 mi SW 10.4 mph - N/A   Clear
11:53 AM 36.0 °F 27.5 °F 19.9 °F 52% 29.92 in 10.0 mi WSW 12.7 mph - N/A   Clear
12:53 PM 37.0 °F 28.1 °F 16.0 °F 42% 29.87 in 10.0 mi SW 15.0 mph - N/A   Clear
1:53 PM 39.0 °F 31.0 °F 15.1 °F 38% 29.85 in 10.0 mi SW 13.8 mph - N/A   Clear
2:53 PM 39.9 °F 31.1 °F 15.1 °F 36% 29.83 in 10.0 mi SW 17.3 mph - N/A   Clear
3:53 PM 39.9 °F 31.8 °F 17.1 °F 40% 29.83 in 10.0 mi SW 15.0 mph - N/A   Clear
4:53 PM 39.0 °F 31.8 °F 17.1 °F 41% 29.85 in 10.0 mi SW 11.5 mph - N/A   Mostly Cloudy
5:53 PM 37.9 °F 28.5 °F 17.1 °F 43% 29.86 in 10.0 mi SW 17.3 mph - N/A   Overcast
6:53 PM 37.9 °F 27.9 °F 17.1 °F 43% 29.88 in 10.0 mi WSW 19.6 mph 26.5 mph N/A   Overcast
7:53 PM 37.0 °F 26.7 °F 18.0 °F 46% 29.90 in 10.0 mi WSW 19.6 mph 25.3 mph N/A   Overcast
8:53 PM 37.0 °F 27.7 °F 19.9 °F 50% 29.92 in 10.0 mi West 16.1 mph - N/A   Overcast
9:53 PM 36.0 °F 26.3 °F 21.9 °F 57% 29.93 in 10.0 mi West 16.1 mph - N/A   Overcast
10:20 PM 35.6 °F 26.2 °F 23.0 °F 60% 29.92 in 10.0 mi WSW 15.0 mph 27.6 mph N/A   Overcast
10:53 PM 36.0 °F 26.7 °F 24.1 °F 62% 29.94 in 10.0 mi West 15.0 mph - N/A   Overcast
11:53 PM 37.0 °F 28.5 °F 25.0 °F 62% 29.96 in 10.0 mi West 13.8 mph - N/A   Overcast